SCP
0 0 0 0 0 0 0 0 0 0 0 0 0 0 0 0 0 0 0 0 0 0 0 0 0 0 0 0 0 0 0 0 0 0 0 0 0 0 0 0 0 0 0 0
0 0 0 0 0 0 0 0 0 0 0 0 0 0 0 0 0 0 0 0 0 0 0 0 0 0 0 0 0 0 0 0 0 0 0 0 0 0 0 0 0 0 0 0
0 0 0 0 0 0 0 0 0 0 0 0 0 0 0 0 0 0 0 0 0 0 0 0 0 0 0 0 0 0 0 0 0 0 0 0 0 0 0 0 0 0 0 0
0 0 0 0 0 0 0 0 0 0 0 0 0 0 0 0 0 0 0 0 0 0 0 0 0 0 0 0 0 0 0 0 0 0 0 0 0 0 0 0 0 0 0 0
0 0 0 0 0 0 0 0 0 0 0 0 0 0 0 0 0 0 0 0 0 0 0 0 0 0 0 0 0 0 0 0 0 0 0 0 0 0 0 0 0 0 0 0
0 0 0 0 0 0 0 0 0 0 0 0 0 0 0 0 0 0 0 0 0 0 0 0 0 0 0 0 0 0 0 0 0 0 0 0 0 0 0 0 0 0 0 0
0 0 0 0 0 0 0 0 0 0 0 0 0 0 0 0 0 0 0 0 0 0 0 0 0 0 0 0 0 0 0 0 0 0 0 0 0 0 0 0 0 0 0 0
0 0 0 0 0 0 0 0 0 0 0 0 0 0 0 0 0 0 0 0 0 0 0 0 0 0 0 0 0 0 0 0 0 0 0 0 0 0 0 0 0 0 0 0
0 0 0 0 0 0 0 0 0 0 0 0 0 0 0 0 0 0 0 0 0 0 0 0 0 0 0 0 0 0 0 0 0 0 0 0 0 0 0 0 0 0 0 0
0 0 0 0 0 0 0 0 0 0 0 0 0 0 0 0 0 0 0 0 0 0 0 0 0 0 0 0 0 0 0 0 0 0 0 0 0 0 0 0 0 0 0 0
0 0 0 0 0 0 0 0 0 0 0 0 0 0 0 0 0 0 0 0 0 0 0 0 0 0 0 0 0 0 0 0 0 0 0 0 0 0 0 0 0 0 0 0
0 0 0 0 0 0 0 0 0 0 0 0 0 0 0 0 0 0 0 0 0 0 0 0 0 0 0 0 0 0 0 0 0 0 0 0 0 0 0 0 0 0 0 0
0 0 0 0 0 0 0 0 0 0 0 0 0 0 0 0 0 0 0 0 0 0 0 0 0 0 0 0 0 0 0 0 0 0 0 0 0 0 0 0 0 0 0 0
0 0 0 0 0 0 0 0 0 0 0 0 0 0 0 0 0 0 0 0 0 0 0 0 0 0 0 0 0 0 0 0 0 0 0 0 0 0 0 0 0 0 0 0
0 0 0 0 0 0 0 0 0 0 0 0 0 0 0 0 0 0 0 0 0 0 0 0 0 0 0 0 0 0 0 0 0 0 0 0 0 0 0 0 0 0 0 0
0 0 0 0 0 0 0 0 0 0 0 0 0 0 0 0 0 0 0 0 0 0 0 0 0 0 0 0 0 0 0 0 0 0 0 0 0 0 0 0 0 0 0 0
0 0 0 0 0 0 0 0 0 0 0 0 0 0 0 0 0 0 0 0 0 0 0 0 0 0 0 0 0 0 0 0 0 0 0 0 0 0 0 0 0 0 0 0
0 0 0 0 0 0 0 0 0 0 0 0 0 0 0 0 0 0 0 0 0 0 0 0 0 0 0 0 0 0 0 0 0 0 0 0 0 0 0 0 0 0 0 0
0 0 0 0 0 0 0 -0 -0 0 0 0 0 0 0 0 0 0 0 0 0 0 0 0 0 0 0 0 0 0 0 0 0 0 0 0 0 0 0 0 0 0 0 0
0 0 0 0 0 0 0 -0 -0 0 0 0 0 0 0 0 0 0 0 0 0 0 0 0 0 0 0 0 0 0 0 0 0 0 0 0 0 0 0 0 0 0 0 0
0 0 0 0 0 0 -0 -0 -0 0 0 0 0 0 0 0 0 0 0 0 0 0 0 0 0 0 0 0 0 0 0 0 0 -0 0 0 0 0 0 0 0 0 0 0
-0 0 0 0 0 0 0 0 0 0 0 0 0 0 -0 -0 0 0 0 0 0 0 0 0 0 0 0 0 0 0 0 0 -0 -0 0 0 0 0 0 0 0 0 0 0
-0 0 0 0 0 0 0 0 0 0 0 0 0 0 0 0 0 0 0 0 0 0 0 0 0 0 0 0 0 0 0 -0 -0 0 0 0 0 0 0 0 0 0 0 0
0 0 0 0 0 0 -0 -0 0 0 0 0 0 0 0 -0 -0 0 0 0 0 0 0 0 0 0 0 0 0 0 0 -0 -0 0 0 0 0 0 0 0 0 0 0 0
0 0 0 0 0 -0 -0 -0 0 0 0 -0 0 0 0 -0 -0 -0 0 0 0 0 0 0 0 0 0 0 0 0 0 -0 0 0 0 0 0 0 0 0 0 0 0 0
0 0 0 0 0 -0 -0 -0 0 0 0 -0 0 0 0 -0 -0 -0 -0 0 0 0 0 0 0 0 0 0 0 0 0 0 0 0 0 0 0 0 0 0 0 0 0 0
Wind_Speed
4 4 6 7 9 9 7 7 8 6 3 3 7 10 9 7 6 6 5 4 3 3 2 2 3 3 3 3 4 5 5 6 6 5 6 6 6 5 4 4 5 6 6 7
3 6 7 6 6 8 9 8 8 4 2 3 6 11 10 9 7 5 5 4 3 2 0 1 2 2 2 2 2 4 5 5 5 5 6 4 4 4 5 4 5 7 7 7
6 2 3 6 5 7 9 7 6 5 4 5 6 9 8 6 6 5 4 3 2 1 1 0 1 1 1 0 1 2 3 4 5 4 3 3 3 2 4 5 6 7 7 7
5 4 4 4 6 6 7 5 5 4 2 3 3 5 4 5 6 5 4 2 2 1 1 1 2 2 2 1 1 1 1 1 2 3 4 5 5 6 6 5 5 5 7 7
3 2 4 5 5 6 4 3 4 4 3 4 5 5 5 2 3 4 4 3 1 1 2 2 3 2 2 2 2 2 2 1 1 1 3 5 4 4 3 3 4 5 5 6
4 3 3 4 4 4 2 2 2 2 2 5 7 6 4 2 3 1 1 2 2 2 3 3 3 4 4 4 3 3 2 2 2 1 1 2 3 2 2 3 3 3 2 3
2 3 2 1 1 2 2 2 1 2 4 6 5 6 3 1 2 3 4 5 4 4 3 3 4 5 5 5 5 4 4 3 3 2 1 1 1 2 2 2 2 2 2 2
2 2 2 2 2 3 5 4 3 3 4 2 3 5 1 2 3 4 5 4 4 4 4 4 4 4 4 5 5 5 4 4 4 4 3 2 1 0 1 1 1 1 1 1
3 3 1 2 2 2 3 4 3 1 2 2 4 2 2 2 3 4 4 4 4 5 5 5 5 5 5 5 5 5 5 5 5 5 4 4 4 3 2 2 1 1 1 1
3 4 3 2 1 2 2 1 1 1 2 3 4 3 2 3 2 3 4 4 4 5 5 5 5 5 5 4 4 5 5 4 4 5 5 4 4 4 3 2 2 2 2 2
3 3 3 1 2 2 2 2 2 2 2 2 2 1 2 2 3 3 3 4 5 5 5 5 5 4 4 5 4 4 5 5 4 5 5 4 4 4 4 3 3 3 2 2
4 2 3 3 2 2 2 3 3 2 2 2 2 2 3 4 5 4 4 4 5 4 4 4 4 4 4 4 4 4 4 4 4 4 4 4 4 4 4 4 3 3 3 2
4 2 3 1 0 1 1 2 3 2 2 3 3 3 2 4 5 6 5 4 4 4 4 4 4 5 5 4 4 4 4 4 4 4 4 4 4 4 4 4 4 3 3 3
5 1 2 2 3 3 4 5 4 3 3 4 4 4 3 3 4 4 4 3 3 4 4 4 4 4 4 4 4 4 4 4 4 4 4 4 4 3 3 3 3 3 3 3
3 2 3 5 5 4 5 6 5 5 6 5 5 5 5 3 2 3 3 3 3 4 4 5 5 4 4 4 4 3 4 4 4 4 4 4 4 4 4 4 4 4 3 3
3 3 4 5 4 4 6 6 6 6 6 7 7 7 4 3 2 3 4 4 4 4 4 5 5 5 5 5 4 4 4 3 3 3 3 3 4 4 4 3 3 3 3 3
2 2 3 4 6 4 5 4 4 4 5 5 7 5 2 3 4 4 4 3 4 4 4 4 5 5 5 5 5 4 4 4 3 3 3 3 3 4 4 3 3 3 3 2
3 3 2 3 3 4 4 1 2 3 4 3 3 2 2 3 4 4 3 3 4 5 5 5 5 5 4 4 4 4 3 3 3 3 3 3 3 3 3 3 3 3 3 2
4 3 2 2 3 6 4 1 1 2 4 2 2 3 4 4 4 2 3 3 4 4 4 5 5 5 4 4 4 3 3 3 3 3 3 3 3 4 4 4 4 3 3 2
2 3 3 2 3 5 3 1 2 2 3 1 2 3 3 4 4 3 5 5 5 5 4 5 5 4 4 4 3 3 4 4 4 4 4 3 3 4 4 4 4 3 2 2
1 2 4 4 5 6 3 1 1 1 3 2 3 3 4 4 4 5 6 6 6 5 5 5 5 4 4 4 3 3 4 4 4 4 4 4 4 4 4 4 4 3 3 2
4 3 4 3 5 7 1 2 2 3 2 2 3 3 4 5 6 6 6 6 6 6 5 5 4 5 4 3 2 4 5 4 4 4 4 5 4 4 3 3 3 3 2 2
5 5 4 6 7 3 1 2 2 1 2 2 3 4 4 6 6 7 7 6 6 6 6 5 4 5 4 3 2 4 4 4 4 4 4 4 5 4 3 3 3 3 2 2
4 2 4 6 7 4 4 3 2 2 3 3 3 4 4 6 7 7 7 6 6 6 5 5 5 5 5 3 3 3 3 3 3 4 5 4 4 4 3 3 3 3 3 3
5 3 4 8 7 5 5 4 3 3 3 3 4 4 4 6 7 7 7 6 6 6 5 4 4 5 6 5 4 3 3 2 3 4 4 4 3 3 3 3 3 4 3 3
7 8 7 9 5 5 5 3 2 3 4 4 5 5 4 4 6 6 6 5 5 5 5 5 5 6 6 5 5 4 3 2 3 4 3 3 3 3 3 3 3 4 5 5
Wind_Direction
188 213 220 224 226 255 284 277 267 268 287 245 248 258 257 252 252 257 264 254 237 226 217 151 143 151 159 166 171 174 180 188 183 184 192 199 206 203 204 206 205 207 205 202
213 235 247 256 249 251 264 273 276 289 334 287 268 267 261 253 242 239 248 263 263 251 272 97 108 122 144 170 185 189 190 188 190 196 195 196 191 201 207 206 212 215 211 208
229 263 267 250 249 248 248 256 271 290 315 281 283 272 245 241 240 240 239 249 281 300 271 151 116 106 114 151 221 224 207 196 197 194 187 176 174 195 206 209 213 217 215 213
255 264 271 247 243 246 251 253 272 286 294 264 234 275 245 224 221 225 229 233 258 308 353 30 67 92 87 39 349 321 301 213 201 193 188 186 198 209 213 212 211 210 213 215
245 247 238 245 248 246 274 279 257 264 273 279 244 254 268 223 227 223 209 200 193 11 28 27 34 54 54 36 18 359 358 358 340 203 202 203 217 221 207 203 211 213 212 213
266 272 254 255 267 246 282 296 258 242 243 251 227 227 270 236 231 214 111 107 95 67 46 34 31 42 39 32 24 13 3 358 1 350 222 216 220 216 208 211 218 217 218 214
273 234 216 242 235 218 230 172 150 191 210 239 205 211 242 359 32 67 68 63 62 56 51 39 34 33 31 27 21 18 18 7 1 3 344 273 231 214 214 216 217 216 220 233
289 248 213 219 217 209 217 206 184 199 217 245 199 213 178 72 63 62 66 60 47 41 41 44 40 39 32 25 22 18 17 10 6 10 7 9 359 280 260 271 241 230 235 246
313 282 306 268 256 220 206 226 265 309 310 263 225 205 149 74 73 66 58 51 39 36 37 37 36 38 36 28 21 18 16 15 13 14 17 22 20 17 13 8 357 345 355 352
314 294 281 272 241 234 244 236 78 192 208 246 246 231 205 153 124 86 61 46 34 38 37 34 32 31 32 28 23 23 22 21 19 20 23 24 22 20 19 26 23 11 7 10
309 283 287 243 211 220 202 187 198 208 241 248 262 273 15 98 94 80 62 48 44 39 38 30 21 23 27 27 26 24 21 21 24 24 26 26 21 20 22 27 20 7 11 11
333 304 281 259 257 259 224 217 199 199 236 250 272 274 0 52 55 59 53 46 44 36 29 24 17 20 21 21 21 19 17 19 18 19 28 28 25 23 22 22 16 9 3 358
330 326 312 309 238 284 246 245 250 255 249 235 233 245 355 34 40 38 39 33 32 28 19 14 15 15 10 9 15 16 15 14 12 16 22 24 24 21 17 14 11 9 8 359
337 306 266 271 296 314 293 270 254 242 242 253 241 250 296 358 7 10 11 9 9 18 13 12 11 5 359 2 11 13 11 13 11 11 15 15 10 8 5 3 5 3 4 2
349 302 285 285 299 304 292 280 262 241 239 246 265 268 276 303 323 333 346 359 7 13 11 7 0 356 353 354 360 3 2 6 7 8 8 3 359 2 5 2 358 355 355 353
351 318 304 289 297 301 296 288 266 252 248 249 263 271 289 310 334 339 349 358 360 355 354 354 353 348 345 345 346 346 349 353 360 357 352 356 358 1 2 355 353 351 346 345
312 318 314 287 313 326 288 261 250 246 245 249 255 264 313 327 330 327 330 344 347 345 343 340 337 333 333 339 340 332 337 343 347 340 344 350 352 352 347 343 344 338 336 342
260 293 284 296 333 263 244 243 272 267 276 276 281 313 323 321 318 329 346 3 351 343 336 331 325 319 319 322 325 329 338 337 329 327 331 337 337 330 327 326 321 319 322 327
226 241 272 282 275 271 273 247 245 265 287 281 294 324 341 334 317 318 4 5 336 324 321 316 311 306 312 316 322 332 331 326 319 315 320 325 324 316 311 307 308 311 318 322
232 224 243 259 267 263 281 360 347 326 282 10 6 339 336 338 317 305 351 343 325 315 311 311 312 311 309 314 329 325 312 312 307 310 312 313 309 301 297 296 299 299 296 299
208 223 229 244 256 265 268 239 61 210 259 348 0 345 334 312 288 301 321 322 321 313 312 317 317 315 312 324 329 308 304 300 307 316 315 309 303 296 290 292 294 296 301 305
207 211 217 215 234 255 247 114 196 241 311 342 341 337 320 307 306 310 312 313 318 321 318 319 317 310 313 326 316 302 300 312 324 320 312 307 305 299 293 289 292 294 289 284
220 214 217 215 229 250 182 208 247 339 313 312 314 315 309 299 299 305 305 306 307 311 314 316 310 305 309 316 300 292 305 326 324 315 305 301 300 296 288 280 282 283 276 267
244 234 251 267 264 264 261 268 295 316 297 307 309 304 302 294 297 301 302 303 306 307 308 311 309 302 302 306 299 286 302 318 314 303 301 298 296 297 294 285 274 266 260 255
240 218 240 256 270 288 267 256 271 289 299 302 299 291 288 290 293 296 299 303 307 309 310 309 302 298 297 302 296 297 307 309 298 290 287 289 287 287 289 283 273 274 264 252
211 209 216 239 233 227 257 252 258 270 281 286 293 295 294 285 289 298 298 301 307 310 315 313 308 302 301 301 296 297 296 284 282 289 290 289 287 288 287 292 299 288 284 278